Tracking 29892 objects as of 21-Nov-2024
HD Live streaming from Space Station
objects crossing your sky now

IRIDIUM 29

Track IRIDIUM 29 now!
10-day predictions
IRIDIUM 29 is classified as:


NORAD ID: 24944
Int'l Code: 1997-051A
Perigee: 777.0 km
Apogee: 780.0 km
Inclination: 86.4 °
Period: 100.3 minutes
Semi major axis: 7149 km
RCS: 3.662 m2 (large)
Launch date: September 14, 1997
Source: United States (US)
Launch site: TYURATAM MISSILE AND SPACE COMPLEX (TTMTR)
Your satellite tracking list
Your tracking list is empty




NASA's NSSDC Master Catalog

Two Line Element Set (TLE):
1 24944U 97051A   24325.48663306  .00000729  00000-0  24375-3 0  9999
2 24944  86.3986 231.3434 0002064  86.0553 274.0880 14.36113296423312
Source of the keplerian elements: AFSPC